Location: Les Jeannots
(43.2262°N, 5.5774°E)
Time: 18:05:33
(UTC+00:00)

Okean 3 Rocket - Pass Details

Date: 05 July 2020
Orbit: 615 x 645 km, 82.5° (Epoch: 13 August)

Event Time Altitude Azimuth Distance (km) Brightness Sun altitude
Exits shadow 22:47:01 62° 107° (ESE) 711 3.6 -22.9°
Maximum altitude 22:47:10 63° 95° (E) 708 3.6 -22.9°
Drops below altitude 10° 22:51:34 10° 15° (NNE) 2,009 7.0 -23.1°
Sets 22:53:49 0° 12° (NNE) 2,916 8.1 -23.2°
